Weather History for Buffalo, WY

Change the Weather History Date:

Monday, January 7, 2013

  Actual Average Record
Temperature  
Mean Temperature 28 °F 28 °F  
Max Temperature 37 °F 39 °F 63 °F (2002)
Min Temperature 19 °F 16 °F -12 °F (2010)
Degree Days  
Heating Degree Days 37 37  
Month to date heating degree days 235 265  
Since 1 July heating degree days 2960 3312  
Cooling Degree Days 0 0  
Month to date cooling degree days 0 0  
Year to date cooling degree days 0 0  
Moisture  
Dew Point 15 °F    
Average Humidity 54    
Maximum Humidity 68    
Minimum Humidity 39    
Precipitation  
Precipitation 0.00 in 0.01 in 0.03 in (2009)
Month to date precipitation T 0.07  
Year to date precipitation T 0.07  
Sea Level Pressure  
Sea Level Pressure 29.87 in    
Wind  
Wind Speed 4 mph (SW)    
Max Wind Speed 13 mph    
Max Gust Speed 14 mph    
Visibility 10 miles    
Events      
T = Trace of Precipitation, MM = Missing Value Source: NWS Daily Summary

Daily Weather History Graph

Daily Weather History Graph

Search for Another Location

Airport:

Trip Planner

Search our weather history database for the weather conditions in past years. The results will help you decide how hot, cold, wet, or windy it might be!

Date:

Astronomy

Jan. 07, 2013 Rise Set
Actual Time 7:42 AM MST 4:44 PM MST
Civil Twilight 7:09 AM MST 5:17 PM MST
Nautical Twilight 6:33 AM MST 5:53 PM MST
Astronomical Twilight 5:58 AM MST 6:28 PM MST
Moon 3:06 AM MST (1/7) 12:59 PM MST (1/7)
Length of Visible Light 10h 07m
Length of Day
9h 02m
Waning Crescent, 22% of the Moon is Illuminated
Jan 7
Waning Crescent
Jan 11
New
Jan 18
First Quarter
Jan 26
Full
Feb 3
Last Quarter

Hourly Weather History & Observations

Time (MST) Temp. Windchill Dew Point Humidity Pressure Visibility Wind Dir Wind Speed Gust Speed Precip Events Conditions
12:53 AM 30.0 °F 26.5 °F 9.0 °F 41% 29.93 in 10.0 mi West 3.5 mph - N/A   Clear
1:53 AM 24.1 °F 17.0 °F 9.0 °F 53% 29.94 in 10.0 mi WNW 5.8 mph - N/A   Clear
2:53 AM 19.9 °F 13.4 °F 8.1 °F 60% 29.97 in 10.0 mi WNW 4.6 mph - N/A   Clear
3:53 AM 23.0 °F 17.0 °F 9.0 °F 55% 29.98 in 10.0 mi WSW 4.6 mph - N/A   Clear
4:53 AM 21.0 °F 16.2 °F 9.0 °F 60% 30.00 in 10.0 mi WNW 3.5 mph - N/A   Clear
5:53 AM 24.1 °F 15.2 °F 12.9 °F 62% 29.98 in 10.0 mi WSW 8.1 mph - N/A   Clear
6:53 AM 25.0 °F 15.5 °F 12.9 °F 60% 29.99 in 10.0 mi WSW 9.2 mph - N/A   Clear
7:53 AM 28.0 °F 24.2 °F 12.9 °F 53% 29.96 in 10.0 mi Variable 3.5 mph - N/A   Clear
8:53 AM 28.9 °F 21.9 °F 14.0 °F 54% 29.95 in 10.0 mi South 6.9 mph - N/A   Clear
9:53 AM 28.9 °F 25.2 °F 16.0 °F 58% 29.97 in 10.0 mi SE 3.5 mph - N/A   Clear
10:53 AM 36.0 °F 31.1 °F 18.0 °F 48% 29.90 in 10.0 mi SSE 5.8 mph - N/A   Clear
11:53 AM 36.0 °F - 19.9 °F 52% 29.90 in 10.0 mi Calm Calm - N/A   Clear
12:53 PM 37.0 °F - 19.9 °F 50% 29.84 in 10.0 mi Calm Calm - N/A   Clear
1:53 PM 35.1 °F 32.2 °F 19.9 °F 54% 29.85 in 10.0 mi ESE 3.5 mph - N/A   Clear
2:53 PM 32.0 °F 27.5 °F 19.0 °F 59% 29.87 in 10.0 mi SSE 4.6 mph - N/A   Clear
4:53 PM 28.0 °F 20.8 °F 18.0 °F 66% 29.83 in 10.0 mi West 6.9 mph - N/A   Clear
5:53 PM 26.1 °F 20.5 °F 16.0 °F 66% 29.80 in 10.0 mi South 4.6 mph - N/A   Clear
6:53 PM 27.0 °F 23.0 °F 17.1 °F 66% 29.78 in 10.0 mi SSW 3.5 mph - N/A   Clear
7:53 PM 27.0 °F 23.0 °F 16.0 °F 63% 29.75 in 10.0 mi SSW 3.5 mph - N/A   Overcast
8:53 PM 30.0 °F - 17.1 °F 59% 29.73 in 10.0 mi Calm Calm - N/A   Overcast
9:53 PM 33.1 °F 30.0 °F 16.0 °F 50% 29.73 in 10.0 mi West 3.5 mph - N/A   Overcast
10:53 PM 32.0 °F 26.4 °F 16.0 °F 52% 29.69 in 10.0 mi NNW 5.8 mph - N/A   Mostly Cloudy
11:53 PM 30.9 °F 24.3 °F 17.1 °F 57% 29.70 in 10.0 mi SW 6.9 mph - N/A   Clear